Weather History for Hereford, TX

Change the Weather History Date:

Friday, November 8, 2013

  Actual Average (KAMA) Record (KAMA)
Temperature  
Mean Temperature 42 °F 50 °F  
Max Temperature 52 °F 64 °F 87 °F (1980)
Min Temperature 36 °F 36 °F 15 °F (1955)
Degree Days  
Heating Degree Days 22 15  
Month to date heating degree days 111  
Since 1 July heating degree days 391  
Cooling Degree Days 0 0  
Month to date cooling degree days 0  
Year to date cooling degree days 1398  
Moisture  
Dew Point 18 °F    
Average Humidity 41    
Maximum Humidity 50    
Minimum Humidity 23    
Precipitation  
Precipitation 0.00 in 0.04 in 1.84 in (1905)
Month to date precipitation 0.28  
Year to date precipitation 19.13  
Snow  
Snow 0.00 in 0.00 in 3.50 in (1929)
Month to date snowfall 0.4  
Since 1 July snowfall 0.6  
Since 1 September snowfall 0.6  
Snow Depth -    
Sea Level Pressure  
Sea Level Pressure 30.11 in    
Wind  
Wind Speed 14 mph (SSW)    
Max Wind Speed 25 mph    
Max Gust Speed 33 mph    
Visibility 10 miles    
Events      
T = Trace of Precipitation, MM = Missing Value Source: NWS Daily Summary

Daily Weather History Graph

Daily Weather History Graph

Search for Another Location

Airport:

Trip Planner

Search our weather history database for the weather conditions in past years. The results will help you decide how hot, cold, wet, or windy it might be!

Date:

Astronomy

Nov. 08, 2013 Rise Set
Actual Time 7:16 AM CST 5:48 PM CST
Civil Twilight 6:50 AM CST 6:15 PM CST
Nautical Twilight 6:20 AM CST 6:45 PM CST
Astronomical Twilight 5:50 AM CST 7:15 PM CST
Moon 12:14 PM CST (11/8) 11:11 PM CST (11/8)
Length of Visible Light 11h 24m
Length of Day
10h 31m
Waxing Crescent, 33% of the Moon is Illuminated
Nov 8
Waxing Crescent
Nov 9
First Quarter
Nov 17
Full
Nov 25
Last Quarter
Dec 2
New

Hourly Weather History & Observations

Time (CST) Temp. Windchill Dew Point Humidity Pressure Visibility Wind Dir Wind Speed Gust Speed Precip Events Conditions
12:15 AM 39.7 °F 33.2 °F 19.4 °F 44% 30.32 in 10.0 mi SW 10.4 mph - N/A   Clear
12:35 AM 39.7 °F 33.7 °F 19.4 °F 44% 30.31 in 10.0 mi SW 9.2 mph - N/A   Clear
12:55 AM 39.2 °F 32.5 °F 19.0 °F 44% 30.31 in 10.0 mi SSW 10.4 mph - N/A   Clear
1:15 AM 36.1 °F 29.9 °F 18.9 °F 50% 30.31 in 10.0 mi SSW 8.1 mph - N/A   Clear
1:35 AM 36.3 °F 30.1 °F 18.9 °F 49% 30.29 in 10.0 mi SSW 8.1 mph - N/A   Clear
1:55 AM 37.2 °F 31.2 °F 18.5 °F 47% 30.28 in 10.0 mi SSW 8.1 mph - N/A   Clear
2:15 AM 36.5 °F 28.2 °F 18.9 °F 49% 30.28 in 10.0 mi SSW 12.7 mph 16.1 mph N/A   Clear
2:35 AM 39.4 °F 31.4 °F 18.1 °F 42% 30.27 in 10.0 mi SSW 13.8 mph - N/A   Clear
2:55 AM 39.7 °F 32.3 °F 17.6 °F 41% 30.26 in 10.0 mi SSW 12.7 mph - N/A   Clear
3:15 AM 39.2 °F 31.2 °F 18.1 °F 43% 30.26 in 10.0 mi SSW 13.8 mph - N/A   Clear
3:35 AM 38.5 °F 31.1 °F 18.3 °F 44% 30.26 in 10.0 mi SSW 11.5 mph - N/A   Clear
3:55 AM 38.3 °F 30.9 °F 18.5 °F 45% 30.24 in 10.0 mi SSW 11.5 mph - N/A   Clear
4:15 AM 38.7 °F 30.9 °F 18.5 °F 44% 30.24 in 10.0 mi SSW 12.7 mph - N/A   Clear
4:35 AM 39.2 °F 31.6 °F 18.5 °F 43% 30.23 in 10.0 mi SW 12.7 mph 17.3 mph N/A   Clear
4:55 AM 38.5 °F 31.6 °F 18.5 °F 45% 30.23 in 10.0 mi SW 10.4 mph - N/A   Clear
5:15 AM 39.2 °F 32.0 °F 18.5 °F 43% 30.22 in 10.0 mi SSW 11.5 mph - N/A   Clear
5:35 AM 38.1 °F 30.7 °F 19.0 °F 46% 30.22 in 10.0 mi SSW 11.5 mph - N/A   Clear
5:55 AM 38.7 °F 30.9 °F 19.4 °F 46% 30.22 in 10.0 mi SSW 12.7 mph - N/A   Clear
6:15 AM 39.7 °F 32.3 °F 19.4 °F 44% 30.22 in 10.0 mi SSW 12.7 mph - N/A   Clear
6:35 AM 39.6 °F 32.1 °F 19.4 °F 44% 30.21 in 10.0 mi SSW 12.7 mph - N/A   Clear
6:55 AM 38.5 °F 31.1 °F 19.2 °F 46% 30.22 in 10.0 mi SW 11.5 mph - N/A   Clear
7:15 AM 39.7 °F 33.2 °F 18.5 °F 42% 30.22 in 10.0 mi SW 10.4 mph - N/A   Clear
7:35 AM 40.3 °F 32.6 °F 18.0 °F 41% 30.21 in 10.0 mi SSW 13.8 mph 18.4 mph N/A   Clear
7:55 AM 41.0 °F 33.5 °F 17.2 °F 38% 30.21 in 10.0 mi SSW 13.8 mph - N/A   Clear
8:15 AM 42.8 °F 35.1 °F 16.5 °F 35% 30.21 in 10.0 mi SSW 16.1 mph 23.0 mph N/A   Clear
8:35 AM 43.9 °F 35.7 °F 16.0 °F 33% 30.21 in 10.0 mi SSW 19.6 mph - N/A   Clear
8:55 AM 45.1 °F 37.6 °F 15.8 °F 31% 30.20 in 10.0 mi SSW 18.4 mph 24.2 mph N/A   Clear
9:15 AM 47.8 °F - 15.6 °F 28% 30.20 in 10.0 mi SSW 20.7 mph 27.6 mph N/A   Clear
9:35 AM 49.6 °F - 15.1 °F 25% 30.20 in 10.0 mi SW 20.7 mph 27.6 mph N/A   Clear
9:55 AM 52.0 °F - 15.1 °F 23% 30.19 in 10.0 mi SW 17.3 mph 28.8 mph N/A   Clear
10:15 AM - - - N/A% 30.17 in 10.0 mi SSW 18.4 mph - N/A   Clear
10:35 AM - - - N/A% 30.16 in 10.0 mi SSW 17.3 mph 24.2 mph N/A   Clear
10:55 AM - - - N/A% 30.14 in 10.0 mi SSW 19.6 mph 25.3 mph N/A   Clear
11:15 AM - - - N/A% 30.13 in 10.0 mi SSW 23.0 mph - N/A   Clear
11:35 AM - - - N/A% 30.12 in 10.0 mi SSW 25.3 mph 31.1 mph N/A   Clear
11:55 AM - - - N/A% 30.12 in 10.0 mi SSW 21.9 mph 28.8 mph N/A   Clear
12:15 PM - - - N/A% 30.11 in 10.0 mi SW 24.2 mph 33.4 mph N/A   Clear
12:35 PM - - - N/A% 30.09 in 10.0 mi SSW 24.2 mph 32.2 mph N/A   Clear
12:55 PM - - - N/A% 30.07 in 10.0 mi SSW 20.7 mph 28.8 mph N/A   Clear
1:15 PM - - - N/A% 30.06 in 10.0 mi SSW 21.9 mph 27.6 mph N/A   Clear
1:35 PM - - - N/A% 30.04 in 10.0 mi SSW 23.0 mph 32.2 mph N/A   Clear
1:55 PM - - - N/A% 30.04 in 10.0 mi SSW 24.2 mph 32.2 mph N/A   Clear
2:15 PM - - - N/A% 30.03 in 10.0 mi SSW 23.0 mph 33.4 mph N/A   Clear
2:35 PM - - - N/A% 30.02 in 10.0 mi SSW 21.9 mph 32.2 mph N/A   Clear
2:55 PM - - - N/A% 30.01 in 10.0 mi SSW 25.3 mph 33.4 mph N/A   Clear
3:15 PM - - - N/A% 30.00 in 10.0 mi SSW 19.6 mph 32.2 mph N/A   Clear
3:35 PM - - - N/A% 30.00 in 10.0 mi SSW 23.0 mph 32.2 mph N/A   Clear
3:55 PM - - - N/A% 30.00 in 10.0 mi SW 23.0 mph 31.1 mph N/A   Clear
4:15 PM - - - N/A% 29.99 in 10.0 mi SSW 17.3 mph 26.5 mph N/A   Clear
4:35 PM - - - N/A% 29.98 in 10.0 mi SSW 18.4 mph 29.9 mph N/A   Clear
4:55 PM - - - N/A% 29.98 in 10.0 mi SSW 18.4 mph 27.6 mph N/A   Clear
5:15 PM - - - N/A% 29.97 in 10.0 mi SSW 16.1 mph 24.2 mph N/A   Clear
5:35 PM - - - N/A% 29.97 in 10.0 mi SSW 12.7 mph - N/A   Clear
5:55 PM - - - N/A% 29.96 in 10.0 mi South 16.1 mph 23.0 mph N/A   Clear
6:15 PM - - - N/A% 29.97 in 10.0 mi South 15.0 mph 21.9 mph N/A   Clear
6:35 PM - - - N/A% 29.97 in 10.0 mi SSW 18.4 mph 23.0 mph N/A   Clear
6:55 PM - - - N/A% 29.97 in 10.0 mi South 17.3 mph 23.0 mph N/A   Clear
7:15 PM - - - N/A% 29.97 in 10.0 mi South 16.1 mph 20.7 mph N/A   Clear
7:35 PM - - - N/A% 29.97 in 10.0 mi SSW 18.4 mph 24.2 mph N/A   Clear
7:55 PM - - - N/A% 29.97 in 10.0 mi SSW 20.7 mph 28.8 mph N/A   Clear
8:15 PM - - - N/A% 29.98 in 10.0 mi SSW 17.3 mph 27.6 mph N/A   Clear
8:35 PM - - - N/A% 29.98 in 10.0 mi South 16.1 mph 25.3 mph N/A   Clear
8:55 PM - - - N/A% 29.98 in 10.0 mi SSW 18.4 mph 24.2 mph N/A   Clear
9:15 PM - - - N/A% 29.98 in 10.0 mi SSW 19.6 mph 25.3 mph N/A   Clear
9:35 PM - - - N/A% 29.98 in 10.0 mi SSW 16.1 mph 20.7 mph N/A   Clear
9:55 PM - - - N/A% 29.98 in 10.0 mi SSW 15.0 mph - N/A   Clear
10:15 PM - - - N/A% 29.99 in 10.0 mi SSW 15.0 mph - N/A   Clear
10:35 PM - - - N/A% 29.99 in 10.0 mi SSW 15.0 mph - N/A   Clear
10:55 PM - - - N/A% 29.99 in 10.0 mi SSW 13.8 mph - N/A   Clear
11:15 PM - - - N/A% 29.99 in 10.0 mi SSW 13.8 mph - N/A   Clear
11:35 PM - - - N/A% 29.99 in 10.0 mi SSW 11.5 mph - N/A   Clear
11:55 PM - - - N/A% 29.99 in 10.0 mi SSW 10.4 mph - N/A   Clear